This demonstration page uses our WeatherBlox Daily Observations layout. Learn more.

Left ArrowRight Arrow

Hourly Observations for May 3, 2020

Temp ( °F °C ) Dew Point ( °F °C ) Humidity (%) Winds ( mph kmh ) Pressure ( in mb ) Visibility ( mi km ) Precip ( " mm )
12:53 am 00:53 Clear 74 23.3 43 6.1 33 33 SSE 9 15 29.78 1008 10 16 0.00 0.00
1:53 am 01:53 Clear 73 22.8 44 6.7 35 35 S 9 15 29.77 1008 10 16 0.00 0.00
2:53 am 02:53 Clear 71 21.7 44 6.7 38 38 SE 7 11 29.76 1008 10 16 0.00 0.00
3:53 am 03:53 Clear 68 20 44 6.7 42 42 S 3 6 29.78 1008 10 16 0.00 0.00
4:53 am 04:53 Clear 65 18.3 43 6.1 45 45 Calm 29.78 1009 10 16 0.00 0.00
5:53 am 05:53 Clear 64 17.8 43 6.1 46 46 ESE 5 7 29.79 1009 10 16 0.00 0.00
6:53 am 06:53 Clear 63 17.2 44 6.7 50 50 ESE 5 7 29.81 1010 10 16 0.00 0.00
7:53 am 07:53 Sunny 68 20 46 7.8 45 45 Calm 29.84 1010 10 16 0.00 0.00
8:53 am 08:53 Sunny 75 23.9 48 8.9 39 39 Calm 29.85 1011 10 16 0.00 0.00
9:53 am 09:53 Sunny 83 28.3 45 7.2 26 26 W 7 11 29.84 1011 10 16 0.00 0.00
10:53 am 10:53 Sunny 90 32.2 42 5.6 19 19 NNW 5 7 29.84 1010 10 16 0.00 0.00
11:53 am 11:53 Sunny 94 34.4 33 0.6 12 12 VRB 7 11 29.83 1010 10 16 0.00 0.00
12:53 pm 12:53 Sunny 96 35.6 35 1.7 12 12 Calm 29.81 1010 10 16 0.00 0.00
1:53 pm 13:53 Sunny 99 37.2 32 0 9 9 VRB 5 7 29.78 1008 10 16 0.00 0.00
2:53 pm 14:53 Sunny 98 36.7 32 0 10 10 SSE 6 9 29.76 1008 10 16 0.00 0.00
3:53 pm 15:53 Sunny 100 37.8 33 0.6 10 10 Calm 29.73 1007 10 16 0.00 0.00
4:53 pm 16:53 Sunny 102 38.9 33 0.6 9 9 W 13 20 29.69 1006 10 16 0.00 0.00
5:53 pm 17:53 Sunny 101 38.3 33 0.6 9 9 WNW 10 17 29.68 1005 10 16 0.00 0.00
6:53 pm 18:53 Sunny 99 37.2 33 0.6 10 10 Calm 29.67 1005 10 16 0.00 0.00
7:53 pm 19:53 Sunny 98 36.7 33 0.6 10 10 Calm 29.66 1005 10 16 0.00 0.00
8:53 pm 20:53 Clear 93 33.9 33 0.6 12 12 SSE 3 6 29.66 1005 10 16 0.00 0.00
9:53 pm 21:53 Clear 84 28.9 35 1.7 17 17 SE 6 9 29.68 1005 10 16 0.00 0.00
10:53 pm 22:53 Clear 82 27.8 36 2.2 19 19 VRB 6 9 29.71 1006 10 16 0.00 0.00
11:53 pm 23:53 Clear 85 29.4 41 5 21 21 SSE 15 24 29.70 1006 10 16 0.00 0.00

Powered by AerisWeather